Regional Weather Roundup
Issued by NWS

Home | Current Version | Previous Version | Graphics & Text | Print | Product List | Glossary On
Versions: 1 2 3 4 5 6 7 8 9 10 11 12 13 14 15 16 17 18 19 20 21 22 23 24 25 26 27 28 29 30 31 32 33 34 35 36 37 38 39 40 41 42 43 44 45 46 47 48 49 50
000
ASUS45 KBOI 272010
RWRID
WEATHER ROUNDUP FOR IDAHO
NATIONAL WEATHER SERVICE BOISE ID
100 PM MST FRI FEB 27 2015

NOTE: "FAIR" INDICATES FEW OR NO CLOUDS BELOW 12000 FEET
WITH NO SIGNIFICANT WEATHER AND/OR OBSTRUCTIONS TO VISIBILITY

IDZ012-014-272100-
SOUTHWEST IDAHO


CITY           SKY/WX    TMP DP  RH WIND       PRES   REMARKS
BOISE          PTSUNNY   49  30  48 SE12      29.72F
CALDWELL       PTSUNNY   52  30  43 E17       29.72F
MOUNTAIN HOME  CLOUDY    46  30  53 E20       29.72F
$$

IDZ016-017-272100-
SOUTHCENTRAL IDAHO


CITY           SKY/WX    TMP DP  RH WIND       PRES   REMARKS
BURLEY         CLOUDY    42  31  64 NE5       29.73F
JEROME         CLOUDY    42  28  57 E6        29.74F
TWIN FALLS     CLOUDY    45  31  58 VRB3      29.73F
$$

IDZ019>023-272100-
SOUTHEAST IDAHO


CITY           SKY/WX    TMP DP  RH WIND       PRES   REMARKS
IDAHO FALLS    LGT SNOW  31  26  82 CALM      29.78F
POCATELLO      PTSUNNY   36  27  69 CALM      29.78F
REXBURG        CLOUDY    32  25  75 S6        29.77F WCI  26
$$

IDZ006-010-011-018-031-032-272100-
CENTRAL IDAHO MOUNTAINS


CITY           SKY/WX    TMP DP  RH WIND       PRES   REMARKS
MCCALL         MIX PCPN  33  26  75 CALM      29.69F
HAILEY         CLOUDY    34  27  75 SE6       29.74F WCI  29
STANLEY          N/A     35  15  44 NW3       29.67F
SALMON         PTSUNNY   34  25  69 CALM      29.77F
CHALLIS        CLOUDY    37  21  52 NE3       29.71F
$$

IDZ002-004-006-007-026-272100-
NORTHERN IDAHO


CITY           SKY/WX    TMP DP  RH WIND       PRES   REMARKS
LEWISTON       MOSUNNY   48  37  65 W5        29.74F
LOWELL           N/A     53  27  36 S3        29.76F
COEUR D`ALENE  SUNNY     48  27  43 NE13      29.79F
MULLAN PASS    SUNNY     25  14  63 SE13G22   29.72F WCI  14
$$


USA.gov is the U.S. government's official web portal to all federal, state and local government web resources and services.